Tracking 31030 objects as of 15-Jul-2025
HD Live streaming from Space Station
objects crossing your sky now

COSMOS 385

Track COSMOS 385 now!
10-day predictions
COSMOS 385 is classified as:


NORAD ID: 4799
Int'l Code: 1970-108A
Perigee: 978.4 km
Apogee: 985.4 km
Inclination: 74.0 °
Period: 104.6 minutes
Semi major axis: 7352 km
RCS: 3.9806 m2 (large)
Launch date: December 12, 1970
Source: Commonwealth of Independent States (former USSR) (CIS)
Launch site: PLESETSK MISSILE AND SPACE COMPLEX (PKMTR)
Your satellite tracking list
Your tracking list is empty




NASA's NSSDC Master Catalog

Two Line Element Set (TLE):
1 04799U 70108A   25195.73024272 -.00000004  00000-0  19229-4 0  9996
2 04799  74.0192 231.9096 0004751 254.9253 249.1287 13.76949549742105
Source of the keplerian elements: AFSPC